Regional Weather Roundup
Issued by NWS Newport/Morehead, NC

Current Version | Previous Version | Text Only | Print | Product List | Glossary On
Versions: 1 2 3 4 5 6 7 8 9 10 11 12 13 14 15 16 17 18 19 20 21 22 23 24 25 26 27 28 29 30 31 32 33 34 35 36 37 38 39 40 41 42 43 44 45 46 47 48 49 50
000
ASUS42 KMHX 011113
RWRMHX
WEATHER ROUNDUP FOR EASTERN NORTH CAROLINA
NATIONAL WEATHER SERVICE NEWPORT/MOREHEAD CITY NC
700 AM EDT SUN MAY 01 2016

NOTE: "FAIR" INDICATES FEW OR NO CLOUDS BELOW 12,000 FEET
WITH NO SIGNIFICANT WEATHER AND/OR OBSTRUCTIONS TO VISIBILITY

NCZ015>017-031-032-045>047-102-103-011200-
NORTH COAST

CITY           SKY/WX    TMP DP  RH WIND       PRES   REMARKS
EDENTON        CLOUDY    58  58 100 CALM      30.14S
ELIZABETH CITY CLOUDY    58  54  86 E5        30.13S
KITTY HAWK     CLOUDY    58  56  93 CALM      30.12S
MANTEO         NOT AVBL

$$

NCZ045>047-081-094-103-104-011200-
CENTRAL COAST

CITY           SKY/WX    TMP DP  RH WIND       PRES   REMARKS
FRISCO         CLOUDY    62  59  90 CALM      30.13R
SWANQUARTER    NOT AVBL

$$

NCZ095-097-098-100-101-011200-
SOUTHERN COAST

CITY           SKY/WX    TMP DP  RH WIND       PRES   REMARKS
BEAUFORT       PTCLDY    61  60  97 E3        30.11F
CEDAR ISLAND   NOT AVBL
JACKSONVILLE   CLOUDY    63  61  94 E6        30.11R FOG
PINEY ISLAND   NOT AVBL
WILMINGTON     MOCLDY    65  63  93 E3        30.09F FOG


$$

NCZ011>013-027>030-043-044-078>080-089-090>093-098-011200-
COASTAL PLAIN

CITY           SKY/WX    TMP DP  RH WIND       PRES   REMARKS
AHOSKIE        CLOUDY    55  52  92 CALM      30.12F
CLINTON        CLOUDY    60  60 100 CALM      30.10S FOG
ELIZABETHTOWN  CLOUDY    61  61 100 E3        30.07F FOG
GOLDSBORO      CLOUDY    61  61 100 E6        30.09S
GREENVILLE     CLOUDY    55  54  94 E3        30.13S
HAVELOCK       CLOUDY    62  60  93 CALM      30.12F
KENANSVILLE    CLOUDY    59  58  97 CALM      30.11F FOG
KINSTON        CLOUDY    59  57  94 CALM      30.12S
NEW BERN       CLOUDY    60  57  89 NE5       30.12F
RICHLANDS      FOG       60  60 100 E5        30.11F VSB 1/2
ROCKY MOUNT    CLOUDY    57  55  93 VRB3      30.11S FOG
WASHINGTON       N/A     55  53  93 CALM      30.12F
WHITEVILLE     PTCLDY    64  62  94 CALM      30.06F FOG

$$

AMZ130-135-150-152-154-156-158-170-250-252-270-ANZ085-086-088-633-658-670-011200-
MARINE OBSERVATIONS

STATION/POSITION TIME  TEMP    WIND        PRES    WAVE   SWELL
                       AIR SEA DIR/SP/G            HT/PER HT/PER
                 (UTC) (F)     (DEG/KT/KT) (MB)    (FT/S) (FT/S)
CHESAPEAKE LIGHT 1000   54      80/ 11/ 11 1021.4
64 E VA BEACH    1050   55 53   60/  6/  8 1020.6    5/10   5/10
DUCK             1000   57 67  100/  6/  9 1019.9
2 E DUCK         1011      59                N/A     4/11   2/11
OREGON INLET     1000   58 61   50/  5/  6 1019.9
13E OREGON INLT  1100      56                N/A     6/10   7/10
HATTERAS CG      1000   63 67   40/  2/  3 1019.6
DIAMOND BUOY     1050   72 73  170/ 12/ 16 1019.8    5/10   5/10
CAPE LOOKOUT     1000   65      50/  7/  8 1019.4
BEAUFORT LAB     1000   61 66   20/  3/  5 1018.9
30 SE NEW RVR IN 1025      68                N/A     4/10   2/11
27 SE WRIGHTSVLE 1008   73 72  170/ 10/ 14 1018.4
5 SE WRIGHTSVLE  1008   68 67   80/  2/  6 1019.9
225 S CAPE HAT   1050   71      90/ 12/ 16 1020.0    5/10   5/10
41 SE CHARLESTON 1050   74 72  140/ 14/ 17 1017.3    5/ 6   3/ 9

$$




USA.gov is the U.S. government's official web portal to all federal, state and local government web resources and services.